owner,sensor,date,latitude,longitude,vertical_datum,sea_water_practical_salinity,qcFlag 
DISL,ioos:station:DISL:DISL:1,2018-01-01T00:00:00Z,30.2513,-88.0778,2.1,11.9,11111222 
DISL,ioos:station:DISL:DISL:1,2018-01-01T00:30:00Z,30.2513,-88.0778,2.055,11.94,1111122 
DISL,ioos:station:DISL:DISL:1,2018-01-01T01:00:00Z,30.2513,-88.0778,2.1,18.8,11111222 
DISL,ioos:station:DISL:DISL:1,2018-01-01T01:30:00Z,30.2513,-88.0778,2.074,23.5,1111122 
DISL,ioos:station:DISL:DISL:1,2018-01-01T02:00:00Z,30.2513,-88.0778,2.1,26.3,11111222 
DISL,ioos:station:DISL:DISL:1,2018-01-01T02:30:00Z,30.2513,-88.0778,2.118,20.44,1111122 
DISL,ioos:station:DISL:DISL:1,2018-01-01T03:00:00Z,30.2513,-88.0778,2.1,24.4,11111222 
DISL,ioos:station:DISL:DISL:1,2018-01-01T03:30:00Z,30.2513,-88.0778,2.137,24.5,1111122 
DISL,ioos:station:DISL:DISL:1,2018-01-01T04:00:00Z,30.2513,-88.0778,2.2,14.7,11111222 
DISL,ioos:station:DISL:DISL:1,2018-01-01T04:30:00Z,30.2513,-88.0778,2.076,14.43,1111122 
DISL,ioos:station:DISL:DISL:1,2018-01-01T05:00:00Z,30.2513,-88.0778,2.114,14.56,1111122 
DISL,ioos:station:DISL:DISL:1,2018-01-01T05:30:00Z,30.2513,-88.0778,2.1,14.7,11111222 
DISL,ioos:station:DISL:DISL:1,2018-01-01T06:00:00Z,30.2513,-88.0778,2.1,14.5,11111222 
DISL,ioos:station:DISL:DISL:1,2018-01-01T06:30:00Z,30.2513,-88.0778,2.043,14.76,1111122 
DISL,ioos:station:DISL:DISL:1,2018-01-01T07:00:00Z,30.2513,-88.0778,2.0,14.5,11111222 
DISL,ioos:station:DISL:DISL:1,2018-01-01T07:30:00Z,30.2513,-88.0778,1.946,14.33,1111122 
DISL,ioos:station:DISL:DISL:1,2018-01-01T08:00:00Z,30.2513,-88.0778,1.9,14.1,11111222 
DISL,ioos:station:DISL:DISL:1,2018-01-01T08:30:00Z,30.2513,-88.0778,1.86,13.9,1111122 
DISL,ioos:station:DISL:DISL:1,2018-01-01T09:00:00Z,30.2513,-88.0778,1.8,13.7,11111222 
DISL,ioos:station:DISL:DISL:1,2018-01-01T09:30:00Z,30.2513,-88.0778,1.761,12.65,1111122 
DISL,ioos:station:DISL:DISL:1,2018-01-01T10:00:00Z,30.2513,-88.0778,1.7,12.5,11111222 
DISL,ioos:station:DISL:DISL:1,2018-01-01T10:30:00Z,30.2513,-88.0778,1.691,12.43,1111122 
DISL,ioos:station:DISL:DISL:1,2018-01-01T11:00:00Z,30.2513,-88.0778,1.7,12.4,11111222 
DISL,ioos:station:DISL:DISL:1,2018-01-01T11:30:00Z,30.2513,-88.0778,1.639,12.46,1111122 
DISL,ioos:station:DISL:DISL:1,2018-01-01T12:00:00Z,30.2513,-88.0778,1.6,12.5,11111222 
DISL,ioos:station:DISL:DISL:1,2018-01-01T12:30:00Z,30.2513,-88.0778,1.629,12.57,1111122 
DISL,ioos:station:DISL:DISL:1,2018-01-01T13:00:00Z,30.2513,-88.0778,1.6,12.6,11111222 
DISL,ioos:station:DISL:DISL:1,2018-01-01T13:30:00Z,30.2513,-88.0778,1.561,12.58,1111122 
DISL,ioos:station:DISL:DISL:1,2018-01-01T14:00:00Z,30.2513,-88.0778,1.5,12.6,11111222 
DISL,ioos:station:DISL:DISL:1,2018-01-01T14:30:00Z,30.2513,-88.0778,1.532,12.58,1111122 
DISL,ioos:station:DISL:DISL:1,2018-01-01T15:00:00Z,30.2513,-88.0778,1.5,12.6,11111222 
DISL,ioos:station:DISL:DISL:1,2018-01-01T15:30:00Z,30.2513,-88.0778,1.542,12.67,1111122 
DISL,ioos:station:DISL:DISL:1,2018-01-01T16:00:00Z,30.2513,-88.0778,1.6,12.7,11111222 
DISL,ioos:station:DISL:DISL:1,2018-01-01T16:30:00Z,30.2513,-88.0778,1.55,12.95,1111122 
DISL,ioos:station:DISL:DISL:1,2018-01-01T17:00:00Z,30.2513,-88.0778,1.6,13.3,11111222 
DISL,ioos:station:DISL:DISL:1,2018-01-01T17:30:00Z,30.2513,-88.0778,1.59,13.31,1111122 
DISL,ioos:station:DISL:DISL:1,2018-01-01T18:00:00Z,30.2513,-88.0778,1.6,13.0,11111222 
DISL,ioos:station:DISL:DISL:1,2018-01-01T18:30:00Z,30.2513,-88.0778,1.618,12.84,1111122 
DISL,ioos:station:DISL:DISL:1,2018-01-01T19:00:00Z,30.2513,-88.0778,1.7,12.8,11111222 
DISL,ioos:station:DISL:DISL:1,2018-01-01T19:30:00Z,30.2513,-88.0778,1.667,16.92,1111122 
DISL,ioos:station:DISL:DISL:1,2018-01-01T20:00:00Z,30.2513,-88.0778,1.7,17.5,11111222 
DISL,ioos:station:DISL:DISL:1,2018-01-01T20:30:00Z,30.2513,-88.0778,1.736,15.16,1111122 
DISL,ioos:station:DISL:DISL:1,2018-01-01T21:00:00Z,30.2513,-88.0778,1.8,17.5,11111222 
DISL,ioos:station:DISL:DISL:1,2018-01-01T21:30:00Z,30.2513,-88.0778,1.793,16.0,1111122 
DISL,ioos:station:DISL:DISL:1,2018-01-01T22:00:00Z,30.2513,-88.0778,1.8,20.5,11111222 
DISL,ioos:station:DISL:DISL:1,2018-01-01T22:30:00Z,30.2513,-88.0778,1.883,26.46,1111122 
DISL,ioos:station:DISL:DISL:1,2018-01-01T23:00:00Z,30.2513,-88.0778,1.9,27.2,11111222 
DISL,ioos:station:DISL:DISL:1,2018-01-01T23:30:00Z,30.2513,-88.0778,1.914,28.21,1111122 
DISL,ioos:station:DISL:DISL:1,2018-01-02T00:00:00Z,30.2513,-88.0778,1.9,28.8,11111222 
DISL,ioos:station:DISL:DISL:1,2018-01-02T00:30:00Z,30.2513,-88.0778,1.947,29.23,1111122 
DISL,ioos:station:DISL:DISL:1,2018-01-02T01:00:00Z,30.2513,-88.0778,2.0,26.3,11111222 
DISL,ioos:station:DISL:DISL:1,2018-01-02T01:30:00Z,30.2513,-88.0778,1.995,29.17,1111122 
DISL,ioos:station:DISL:DISL:1,2018-01-02T02:00:00Z,30.2513,-88.0778,2.0,30.4,11111222 
DISL,ioos:station:DISL:DISL:1,2018-01-02T02:30:00Z,30.2513,-88.0778,2.041,16.9,1111122 
DISL,ioos:station:DISL:DISL:1,2018-01-02T03:00:00Z,30.2513,-88.0778,2.1,14.9,11111222 
DISL,ioos:station:DISL:DISL:1,2018-01-02T03:30:00Z,30.2513,-88.0778,2.048,14.1,1111122 
DISL,ioos:station:DISL:DISL:1,2018-01-02T04:00:00Z,30.2513,-88.0778,2.1,13.8,11111222 
DISL,ioos:station:DISL:DISL:1,2018-01-02T04:30:00Z,30.2513,-88.0778,2.047,13.6,1111122 
DISL,ioos:station:DISL:DISL:1,2018-01-02T05:00:00Z,30.2513,-88.0778,2.0,13.6,11111222 
DISL,ioos:station:DISL:DISL:1,2018-01-02T05:30:00Z,30.2513,-88.0778,2.011,13.76,1111122 
DISL,ioos:station:DISL:DISL:1,2018-01-02T06:00:00Z,30.2513,-88.0778,2.0,13.8,11111222 
DISL,ioos:station:DISL:DISL:1,2018-01-02T06:30:00Z,30.2513,-88.0778,1.975,13.9,1111122 
DISL,ioos:station:DISL:DISL:1,2018-01-02T07:00:00Z,30.2513,-88.0778,1.9,13.9,11111222 
DISL,ioos:station:DISL:DISL:1,2018-01-02T07:30:00Z,30.2513,-88.0778,1.901,13.97,1111122 
DISL,ioos:station:DISL:DISL:1,2018-01-02T08:00:00Z,30.2513,-88.0778,1.8,14.1,11111222 
DISL,ioos:station:DISL:DISL:1,2018-01-02T08:30:00Z,30.2513,-88.0778,1.8,14.08,1111122 
DISL,ioos:station:DISL:DISL:1,2018-01-02T09:00:00Z,30.2513,-88.0778,1.8,13.9,11111222 
DISL,ioos:station:DISL:DISL:1,2018-01-02T09:30:00Z,30.2513,-88.0778,1.699,13.81,1111122 
DISL,ioos:station:DISL:DISL:1,2018-01-02T10:00:00Z,30.2513,-88.0778,1.7,13.7,11111222 
DISL,ioos:station:DISL:DISL:1,2018-01-02T10:30:00Z,30.2513,-88.0778,1.655,13.5,1111122 
DISL,ioos:station:DISL:DISL:1,2018-01-02T11:00:00Z,30.2513,-88.0778,1.6,12.9,11111222 
DISL,ioos:station:DISL:DISL:1,2018-01-02T11:30:00Z,30.2513,-88.0778,1.609,12.97,1111122 
DISL,ioos:station:DISL:DISL:1,2018-01-02T12:00:00Z,30.2513,-88.0778,1.6,12.7,11111222 
DISL,ioos:station:DISL:DISL:1,2018-01-02T12:30:00Z,30.2513,-88.0778,1.556,12.47,1111122 
DISL,ioos:station:DISL:DISL:1,2018-01-02T13:00:00Z,30.2513,-88.0778,1.5,12.5,11111222 
DISL,ioos:station:DISL:DISL:1,2018-01-02T13:30:00Z,30.2513,-88.0778,1.514,12.61,1111122 
DISL,ioos:station:DISL:DISL:1,2018-01-02T14:00:00Z,30.2513,-88.0778,1.5,12.9,11111222 
DISL,ioos:station:DISL:DISL:1,2018-01-02T14:30:00Z,30.2513,-88.0778,1.497,13.14,1111122 
DISL,ioos:station:DISL:DISL:1,2018-01-02T15:00:00Z,30.2513,-88.0778,1.5,13.3,11111222 
DISL,ioos:station:DISL:DISL:1,2018-01-02T15:30:00Z,30.2513,-88.0778,1.495,13.22,1111122 
DISL,ioos:station:DISL:DISL:1,2018-01-02T16:00:00Z,30.2513,-88.0778,1.5,13.1,11111222 
DISL,ioos:station:DISL:DISL:1,2018-01-02T16:30:00Z,30.2513,-88.0778,1.487,13.23,1111122 
DISL,ioos:station:DISL:DISL:1,2018-01-02T17:00:00Z,30.2513,-88.0778,1.5,15.2,11111222 
DISL,ioos:station:DISL:DISL:1,2018-01-02T17:30:00Z,30.2513,-88.0778,1.5,16.2,11111222 
DISL,ioos:station:DISL:DISL:1,2018-01-02T18:00:00Z,30.2513,-88.0778,1.5,16.2,11111222 
DISL,ioos:station:DISL:DISL:1,2018-01-02T18:30:00Z,30.2513,-88.0778,1.6,15.9,11111222 
DISL,ioos:station:DISL:DISL:1,2018-01-02T19:00:00Z,30.2513,-88.0778,1.6,16.1,11111222 
DISL,ioos:station:DISL:DISL:1,2018-01-02T19:30:00Z,30.2513,-88.0778,1.622,15.99,1111122 
DISL,ioos:station:DISL:DISL:1,2018-01-02T20:00:00Z,30.2513,-88.0778,1.6,14.4,11111222 
DISL,ioos:station:DISL:DISL:1,2018-01-02T20:30:00Z,30.2513,-88.0778,1.677,19.01,1111122 
DISL,ioos:station:DISL:DISL:1,2018-01-02T21:00:00Z,30.2513,-88.0778,1.7,25.1,11111222 
DISL,ioos:station:DISL:DISL:1,2018-01-02T21:30:00Z,30.2513,-88.0778,1.745,24.29,1111122 
DISL,ioos:station:DISL:DISL:1,2018-01-02T22:00:00Z,30.2513,-88.0778,1.8,29.5,11111222 
DISL,ioos:station:DISL:DISL:1,2018-01-02T22:30:00Z,30.2513,-88.0778,1.797,30.68,1111122 
DISL,ioos:station:DISL:DISL:1,2018-01-02T23:00:00Z,30.2513,-88.0778,1.8,30.5,11111222 
DISL,ioos:station:DISL:DISL:1,2018-01-02T23:30:00Z,30.2513,-88.0778,1.879,30.02,1111122 
DISL,ioos:station:DISL:DISL:1,2018-01-03T00:00:00Z,30.2513,-88.0778,1.9,29.9,11111222 
DISL,ioos:station:DISL:DISL:1,2018-01-03T00:30:00Z,30.2513,-88.0778,1.926,30.49,1111122 
DISL,ioos:station:DISL:DISL:1,2018-01-03T01:00:00Z,30.2513,-88.0778,2.0,31.3,11111222 
DISL,ioos:station:DISL:DISL:1,2018-01-03T01:30:00Z,30.2513,-88.0778,1.992,31.42,1111122 
DISL,ioos:station:DISL:DISL:1,2018-01-03T02:00:00Z,30.2513,-88.0778,2.0,31.5,11111222 
DISL,ioos:station:DISL:DISL:1,2018-01-03T02:30:00Z,30.2513,-88.0778,2.037,31.37,1111122 
DISL,ioos:station:DISL:DISL:1,2018-01-03T03:00:00Z,30.2513,-88.0778,2.1,31.4,11111222 
DISL,ioos:station:DISL:DISL:1,2018-01-03T03:30:00Z,30.2513,-88.0778,2.087,31.72,1111122 
DISL,ioos:station:DISL:DISL:1,2018-01-03T04:00:00Z,30.2513,-88.0778,2.1,32.0,11111222 
DISL,ioos:station:DISL:DISL:1,2018-01-03T04:30:00Z,30.2513,-88.0778,2.116,27.64,1111122 
DISL,ioos:station:DISL:DISL:1,2018-01-03T05:00:00Z,30.2513,-88.0778,2.1,16.3,11111222 
DISL,ioos:station:DISL:DISL:1,2018-01-03T05:30:00Z,30.2513,-88.0778,2.132,13.99,1111122 
DISL,ioos:station:DISL:DISL:1,2018-01-03T06:00:00Z,30.2513,-88.0778,2.1,13.9,11111222 
DISL,ioos:station:DISL:DISL:1,2018-01-03T06:30:00Z,30.2513,-88.0778,2.063,13.92,1111122 
DISL,ioos:station:DISL:DISL:1,2018-01-03T07:00:00Z,30.2513,-88.0778,2.1,13.8,11111222 
DISL,ioos:station:DISL:DISL:1,2018-01-03T07:30:00Z,30.2513,-88.0778,2.017,13.81,1111122 
DISL,ioos:station:DISL:DISL:1,2018-01-03T08:00:00Z,30.2513,-88.0778,2.0,14.6,11111222 
DISL,ioos:station:DISL:DISL:1,2018-01-03T08:30:00Z,30.2513,-88.0778,1.956,13.67,1111122 
DISL,ioos:station:DISL:DISL:1,2018-01-03T09:00:00Z,30.2513,-88.0778,1.9,13.1,11111222 
DISL,ioos:station:DISL:DISL:1,2018-01-03T09:30:00Z,30.2513,-88.0778,1.882,12.75,1111122 
DISL,ioos:station:DISL:DISL:1,2018-01-03T10:00:00Z,30.2513,-88.0778,1.9,12.3,11111222 
DISL,ioos:station:DISL:DISL:1,2018-01-03T10:30:00Z,30.2513,-88.0778,1.805,11.53,1111122 
DISL,ioos:station:DISL:DISL:1,2018-01-03T11:00:00Z,30.2513,-88.0778,1.8,11.3,11111222 
DISL,ioos:station:DISL:DISL:1,2018-01-03T11:30:00Z,30.2513,-88.0778,1.722,11.15,1111122 
DISL,ioos:station:DISL:DISL:1,2018-01-03T12:00:00Z,30.2513,-88.0778,1.7,11.1,11111222 
DISL,ioos:station:DISL:DISL:1,2018-01-03T12:30:00Z,30.2513,-88.0778,1.701,10.93,1111122 
DISL,ioos:station:DISL:DISL:1,2018-01-03T13:00:00Z,30.2513,-88.0778,1.7,11.2,11111222 
DISL,ioos:station:DISL:DISL:1,2018-01-03T13:30:00Z,30.2513,-88.0778,1.655,11.36,1111122 
DISL,ioos:station:DISL:DISL:1,2018-01-03T14:00:00Z,30.2513,-88.0778,1.6,11.6,11111222 
DISL,ioos:station:DISL:DISL:1,2018-01-03T14:30:00Z,30.2513,-88.0778,1.596,11.54,1111122 
DISL,ioos:station:DISL:DISL:1,2018-01-03T15:00:00Z,30.2513,-88.0778,1.6,11.6,11111222 
DISL,ioos:station:DISL:DISL:1,2018-01-03T15:30:00Z,30.2513,-88.0778,1.557,11.61,1111122 
DISL,ioos:station:DISL:DISL:1,2018-01-03T16:00:00Z,30.2513,-88.0778,1.5,11.4,11111222 
DISL,ioos:station:DISL:DISL:1,2018-01-03T16:30:00Z,30.2513,-88.0778,1.556,10.82,1111122 
DISL,ioos:station:DISL:DISL:1,2018-01-03T17:00:00Z,30.2513,-88.0778,1.5,11.4,11111222 
DISL,ioos:station:DISL:DISL:1,2018-01-03T17:30:00Z,30.2513,-88.0778,1.551,11.45,1111122 
DISL,ioos:station:DISL:DISL:1,2018-01-03T18:00:00Z,30.2513,-88.0778,1.6,12.0,11111222 
DISL,ioos:station:DISL:DISL:1,2018-01-03T18:30:00Z,30.2513,-88.0778,1.601,12.28,1111122 
DISL,ioos:station:DISL:DISL:1,2018-01-03T19:00:00Z,30.2513,-88.0778,1.6,12.7,11111222 
DISL,ioos:station:DISL:DISL:1,2018-01-03T19:30:00Z,30.2513,-88.0778,1.608,14.85,1111122 
DISL,ioos:station:DISL:DISL:1,2018-01-03T20:00:00Z,30.2513,-88.0778,1.6,15.8,11111222 
DISL,ioos:station:DISL:DISL:1,2018-01-03T20:30:00Z,30.2513,-88.0778,1.648,15.27,1111122 
DISL,ioos:station:DISL:DISL:1,2018-01-03T21:00:00Z,30.2513,-88.0778,1.7,16.0,11111222 
DISL,ioos:station:DISL:DISL:1,2018-01-03T21:30:00Z,30.2513,-88.0778,1.687,12.66,1111122 
DISL,ioos:station:DISL:DISL:1,2018-01-03T22:00:00Z,30.2513,-88.0778,1.7,12.5,11111222 
DISL,ioos:station:DISL:DISL:1,2018-01-03T22:30:00Z,30.2513,-88.0778,1.74,20.64,1111122 
DISL,ioos:station:DISL:DISL:1,2018-01-03T23:00:00Z,30.2513,-88.0778,1.8,22.9,11111222 
DISL,ioos:station:DISL:DISL:1,2018-01-03T23:30:00Z,30.2513,-88.0778,1.771,23.89,1111122 
DISL,ioos:station:DISL:DISL:1,2018-01-04T00:00:00Z,30.2513,-88.0778,1.8,27.2,11111222 
DISL,ioos:station:DISL:DISL:1,2018-01-04T00:30:00Z,30.2513,-88.0778,1.848,27.4,1111122 
DISL,ioos:station:DISL:DISL:1,2018-01-04T01:00:00Z,30.2513,-88.0778,1.9,29.3,11111222 
DISL,ioos:station:DISL:DISL:1,2018-01-04T01:30:00Z,30.2513,-88.0778,1.925,29.38,1111122 
DISL,ioos:station:DISL:DISL:1,2018-01-04T02:00:00Z,30.2513,-88.0778,2.0,28.6,11111222 
DISL,ioos:station:DISL:DISL:1,2018-01-04T02:30:00Z,30.2513,-88.0778,1.975,30.11,1111122 
DISL,ioos:station:DISL:DISL:1,2018-01-04T03:00:00Z,30.2513,-88.0778,2.0,29.6,11111222 
DISL,ioos:station:DISL:DISL:1,2018-01-04T03:30:00Z,30.2513,-88.0778,2.009,31.03,1111122 
DISL,ioos:station:DISL:DISL:1,2018-01-04T04:00:00Z,30.2513,-88.0778,2.0,31.2,11111222 
DISL,ioos:station:DISL:DISL:1,2018-01-04T04:30:00Z,30.2513,-88.0778,2.059,30.16,1111122 
DISL,ioos:station:DISL:DISL:1,2018-01-04T05:00:00Z,30.2513,-88.0778,2.1,25.2,11111222 
DISL,ioos:station:DISL:DISL:1,2018-01-04T05:30:00Z,30.2513,-88.0778,2.077,15.4,1111122 
DISL,ioos:station:DISL:DISL:1,2018-01-04T06:00:00Z,30.2513,-88.0778,2.1,13.7,11111222 
DISL,ioos:station:DISL:DISL:1,2018-01-04T06:30:00Z,30.2513,-88.0778,2.035,13.09,1111122 
DISL,ioos:station:DISL:DISL:1,2018-01-04T07:00:00Z,30.2513,-88.0778,2.0,13.0,11111222 
DISL,ioos:station:DISL:DISL:1,2018-01-04T07:30:00Z,30.2513,-88.0778,1.991,13.05,1111122 
DISL,ioos:station:DISL:DISL:1,2018-01-04T08:00:00Z,30.2513,-88.0778,2.0,13.0,11111222 
DISL,ioos:station:DISL:DISL:1,2018-01-04T08:30:00Z,30.2513,-88.0778,1.917,12.96,1111122 
DISL,ioos:station:DISL:DISL:1,2018-01-04T09:00:00Z,30.2513,-88.0778,1.9,12.7,11111222 
DISL,ioos:station:DISL:DISL:1,2018-01-04T09:30:00Z,30.2513,-88.0778,1.859,12.66,1111122 
DISL,ioos:station:DISL:DISL:1,2018-01-04T10:00:00Z,30.2513,-88.0778,1.8,12.6,11111222 
DISL,ioos:station:DISL:DISL:1,2018-01-04T10:30:00Z,30.2513,-88.0778,1.796,12.55,1111122 
DISL,ioos:station:DISL:DISL:1,2018-01-04T11:00:00Z,30.2513,-88.0778,1.8,12.4,11111222 
DISL,ioos:station:DISL:DISL:1,2018-01-04T11:30:00Z,30.2513,-88.0778,1.714,12.87,1111122 
DISL,ioos:station:DISL:DISL:1,2018-01-04T12:00:00Z,30.2513,-88.0778,1.7,12.8,11111222 
DISL,ioos:station:DISL:DISL:1,2018-01-04T12:30:00Z,30.2513,-88.0778,1.636,12.86,1111122 
DISL,ioos:station:DISL:DISL:1,2018-01-04T13:00:00Z,30.2513,-88.0778,1.607,13.09,1111122 
DISL,ioos:station:DISL:DISL:1,2018-01-04T13:30:00Z,30.2513,-88.0778,1.6,13.6,11111222 
DISL,ioos:station:DISL:DISL:1,2018-01-04T14:00:00Z,30.2513,-88.0778,1.6,13.5,11111222 
DISL,ioos:station:DISL:DISL:1,2018-01-04T14:30:00Z,30.2513,-88.0778,1.6,13.7,11111222 
DISL,ioos:station:DISL:DISL:1,2018-01-04T15:00:00Z,30.2513,-88.0778,1.6,14.2,11111222 
DISL,ioos:station:DISL:DISL:1,2018-01-04T15:30:00Z,30.2513,-88.0778,1.53,13.56,1111122 
DISL,ioos:station:DISL:DISL:1,2018-01-04T16:00:00Z,30.2513,-88.0778,1.5,14.5,11111222 
DISL,ioos:station:DISL:DISL:1,2018-01-04T16:30:00Z,30.2513,-88.0778,1.525,15.37,1111122 
DISL,ioos:station:DISL:DISL:1,2018-01-04T17:00:00Z,30.2513,-88.0778,1.5,14.3,11111222 
DISL,ioos:station:DISL:DISL:1,2018-01-04T17:30:00Z,30.2513,-88.0778,1.5,15.3,11111222 
DISL,ioos:station:DISL:DISL:1,2018-01-04T18:00:00Z,30.2513,-88.0778,1.5,15.2,11111222 
DISL,ioos:station:DISL:DISL:1,2018-01-04T18:30:00Z,30.2513,-88.0778,1.6,15.3,11111222 
DISL,ioos:station:DISL:DISL:1,2018-01-04T19:00:00Z,30.2513,-88.0778,1.6,16.4,11111222 
DISL,ioos:station:DISL:DISL:1,2018-01-04T19:30:00Z,30.2513,-88.0778,1.6,16.6,11111222 
DISL,ioos:station:DISL:DISL:1,2018-01-04T20:00:00Z,30.2513,-88.0778,1.6,16.0,11111222 
DISL,ioos:station:DISL:DISL:1,2018-01-04T20:30:00Z,30.2513,-88.0778,1.6,15.8,11111222 
DISL,ioos:station:DISL:DISL:1,2018-01-04T21:00:00Z,30.2513,-88.0778,1.6,15.6,11111222 
DISL,ioos:station:DISL:DISL:1,2018-01-04T21:30:00Z,30.2513,-88.0778,1.6,13.4,11111222 
DISL,ioos:station:DISL:DISL:1,2018-01-04T22:00:00Z,30.2513,-88.0778,1.7,13.0,11111222 
DISL,ioos:station:DISL:DISL:1,2018-01-04T22:30:00Z,30.2513,-88.0778,1.7,14.5,11111222 
DISL,ioos:station:DISL:DISL:1,2018-01-04T23:00:00Z,30.2513,-88.0778,1.7,17.2,11111222 
DISL,ioos:station:DISL:DISL:1,2018-01-04T23:30:00Z,30.2513,-88.0778,1.7,21.1,11111222 
DISL,ioos:station:DISL:DISL:1,2018-01-05T00:00:00Z,30.2513,-88.0778,1.8,25.4,11111222 
DISL,ioos:station:DISL:DISL:1,2018-01-05T00:30:00Z,30.2513,-88.0778,1.8,24.9,11111222 
DISL,ioos:station:DISL:DISL:1,2018-01-05T01:00:00Z,30.2513,-88.0778,1.8,26.7,11111222 
DISL,ioos:station:DISL:DISL:1,2018-01-05T01:30:00Z,30.2513,-88.0778,1.8,26.6,11111222 
DISL,ioos:station:DISL:DISL:1,2018-01-05T02:00:00Z,30.2513,-88.0778,1.9,27.8,11111222 
DISL,ioos:station:DISL:DISL:1,2018-01-05T02:30:00Z,30.2513,-88.0778,1.9,29.0,11111222 
DISL,ioos:station:DISL:DISL:1,2018-01-05T03:00:00Z,30.2513,-88.0778,1.9,30.3,11111222 
DISL,ioos:station:DISL:DISL:1,2018-01-05T03:30:00Z,30.2513,-88.0778,1.9,31.2,11111222 
DISL,ioos:station:DISL:DISL:1,2018-01-05T04:00:00Z,30.2513,-88.0778,2.0,31.4,11111222 
DISL,ioos:station:DISL:DISL:1,2018-01-05T04:30:00Z,30.2513,-88.0778,2.0,31.7,11111222 
DISL,ioos:station:DISL:DISL:1,2018-01-05T05:00:00Z,30.2513,-88.0778,2.0,31.8,11111222 
DISL,ioos:station:DISL:DISL:1,2018-01-05T05:30:00Z,30.2513,-88.0778,2.0,30.8,11111222 
DISL,ioos:station:DISL:DISL:1,2018-01-05T06:00:00Z,30.2513,-88.0778,2.0,15.6,11111222 
DISL,ioos:station:DISL:DISL:1,2018-01-05T06:30:00Z,30.2513,-88.0778,2.0,15.9,11111222 
DISL,ioos:station:DISL:DISL:1,2018-01-05T07:00:00Z,30.2513,-88.0778,2.0,13.8,11111222 
DISL,ioos:station:DISL:DISL:1,2018-01-05T07:30:00Z,30.2513,-88.0778,2.0,13.7,11111222 
DISL,ioos:station:DISL:DISL:1,2018-01-05T08:00:00Z,30.2513,-88.0778,2.0,13.7,11111222 
DISL,ioos:station:DISL:DISL:1,2018-01-05T08:30:00Z,30.2513,-88.0778,2.0,13.6,11111222 
DISL,ioos:station:DISL:DISL:1,2018-01-05T09:00:00Z,30.2513,-88.0778,1.9,14.2,11111222 
DISL,ioos:station:DISL:DISL:1,2018-01-05T09:30:00Z,30.2513,-88.0778,1.9,14.3,11111222 
DISL,ioos:station:DISL:DISL:1,2018-01-05T10:00:00Z,30.2513,-88.0778,1.9,13.7,11111222 
DISL,ioos:station:DISL:DISL:1,2018-01-05T10:30:00Z,30.2513,-88.0778,1.9,14.0,11111222 
DISL,ioos:station:DISL:DISL:1,2018-01-05T11:00:00Z,30.2513,-88.0778,1.8,15.0,11111222 
DISL,ioos:station:DISL:DISL:1,2018-01-05T11:30:00Z,30.2513,-88.0778,1.8,16.3,11111222 
DISL,ioos:station:DISL:DISL:1,2018-01-05T12:00:00Z,30.2513,-88.0778,1.8,16.6,11111222 
DISL,ioos:station:DISL:DISL:1,2018-01-05T12:30:00Z,30.2513,-88.0778,1.8,16.9,11111222 
DISL,ioos:station:DISL:DISL:1,2018-01-05T13:00:00Z,30.2513,-88.0778,1.7,17.1,11111222 
DISL,ioos:station:DISL:DISL:1,2018-01-05T13:30:00Z,30.2513,-88.0778,1.7,17.5,11111222 
DISL,ioos:station:DISL:DISL:1,2018-01-05T14:00:00Z,30.2513,-88.0778,1.7,17.6,11111222 
DISL,ioos:station:DISL:DISL:1,2018-01-05T14:30:00Z,30.2513,-88.0778,1.7,17.7,11111222 
DISL,ioos:station:DISL:DISL:1,2018-01-05T15:00:00Z,30.2513,-88.0778,1.7,17.7,11111222 
DISL,ioos:station:DISL:DISL:1,2018-01-05T15:30:00Z,30.2513,-88.0778,1.7,17.8,11111222 
DISL,ioos:station:DISL:DISL:1,2018-01-05T16:00:00Z,30.2513,-88.0778,1.6,17.8,11111222 
DISL,ioos:station:DISL:DISL:1,2018-01-05T16:30:00Z,30.2513,-88.0778,1.6,17.8,11111222 
DISL,ioos:station:DISL:DISL:1,2018-01-05T17:00:00Z,30.2513,-88.0778,1.6,18.4,11111222 
DISL,ioos:station:DISL:DISL:1,2018-01-05T17:30:00Z,30.2513,-88.0778,1.6,19.2,11111222 
DISL,ioos:station:DISL:DISL:1,2018-01-05T18:00:00Z,30.2513,-88.0778,1.6,19.2,11111222 
DISL,ioos:station:DISL:DISL:1,2018-01-05T18:30:00Z,30.2513,-88.0778,1.6,19.0,11111222 
DISL,ioos:station:DISL:DISL:1,2018-01-05T19:00:00Z,30.2513,-88.0778,1.6,19.1,11111222 
DISL,ioos:station:DISL:DISL:1,2018-01-05T19:30:00Z,30.2513,-88.0778,1.6,19.5,11111222 
DISL,ioos:station:DISL:DISL:1,2018-01-05T20:00:00Z,30.2513,-88.0778,1.7,21.0,11111222 
DISL,ioos:station:DISL:DISL:1,2018-01-05T20:30:00Z,30.2513,-88.0778,1.7,20.9,11111222 
DISL,ioos:station:DISL:DISL:1,2018-01-05T21:00:00Z,30.2513,-88.0778,1.7,21.2,11111222 
DISL,ioos:station:DISL:DISL:1,2018-01-05T21:30:00Z,30.2513,-88.0778,1.7,21.0,11111222 
DISL,ioos:station:DISL:DISL:1,2018-01-05T22:00:00Z,30.2513,-88.0778,1.7,18.6,11111222 
DISL,ioos:station:DISL:DISL:1,2018-01-05T22:30:00Z,30.2513,-88.0778,1.7,18.7,11111222 
DISL,ioos:station:DISL:DISL:1,2018-01-05T23:00:00Z,30.2513,-88.0778,1.8,18.0,11111222 
DISL,ioos:station:DISL:DISL:1,2018-01-05T23:30:00Z,30.2513,-88.0778,1.8,20.1,11111222 
DISL,ioos:station:DISL:DISL:1,2018-01-06T00:00:00Z,30.2513,-88.0778,1.8,25.1,11111222 
DISL,ioos:station:DISL:DISL:1,2018-01-06T00:30:00Z,30.2513,-88.0778,1.8,27.7,11111222 
DISL,ioos:station:DISL:DISL:1,2018-01-06T01:00:00Z,30.2513,-88.0778,1.8,28.8,11111222 
DISL,ioos:station:DISL:DISL:1,2018-01-06T01:30:00Z,30.2513,-88.0778,1.9,29.2,11111222 
DISL,ioos:station:DISL:DISL:1,2018-01-06T02:00:00Z,30.2513,-88.0778,1.9,29.8,11111222 
DISL,ioos:station:DISL:DISL:1,2018-01-06T02:30:00Z,30.2513,-88.0778,1.9,29.9,11111222 
DISL,ioos:station:DISL:DISL:1,2018-01-06T03:00:00Z,30.2513,-88.0778,1.9,30.0,11111222 
DISL,ioos:station:DISL:DISL:1,2018-01-06T03:30:00Z,30.2513,-88.0778,2.0,30.0,11111222 
DISL,ioos:station:DISL:DISL:1,2018-01-06T04:00:00Z,30.2513,-88.0778,2.0,29.9,11111222 
DISL,ioos:station:DISL:DISL:1,2018-01-06T04:30:00Z,30.2513,-88.0778,2.0,30.0,11111222 
DISL,ioos:station:DISL:DISL:1,2018-01-06T05:00:00Z,30.2513,-88.0778,2.0,30.0,11111222 
DISL,ioos:station:DISL:DISL:1,2018-01-06T05:30:00Z,30.2513,-88.0778,2.0,29.8,11111222 
DISL,ioos:station:DISL:DISL:1,2018-01-06T06:00:00Z,30.2513,-88.0778,2.0,28.5,11111222 
DISL,ioos:station:DISL:DISL:1,2018-01-06T06:30:00Z,30.2513,-88.0778,2.0,23.2,11111222 
DISL,ioos:station:DISL:DISL:1,2018-01-06T07:00:00Z,30.2513,-88.0778,2.0,17.9,11111222 
DISL,ioos:station:DISL:DISL:1,2018-01-06T07:30:00Z,30.2513,-88.0778,2.0,16.7,11111222 
DISL,ioos:station:DISL:DISL:1,2018-01-06T08:00:00Z,30.2513,-88.0778,2.0,17.6,11111222 
DISL,ioos:station:DISL:DISL:1,2018-01-06T08:30:00Z,30.2513,-88.0778,2.0,17.5,11111222 
DISL,ioos:station:DISL:DISL:1,2018-01-06T09:00:00Z,30.2513,-88.0778,2.0,17.9,11111222 
DISL,ioos:station:DISL:DISL:1,2018-01-06T09:30:00Z,30.2513,-88.0778,2.0,18.1,11111222 
DISL,ioos:station:DISL:DISL:1,2018-01-06T10:00:00Z,30.2513,-88.0778,1.9,17.8,11111222 
DISL,ioos:station:DISL:DISL:1,2018-01-06T10:30:00Z,30.2513,-88.0778,1.9,17.7,11111222 
DISL,ioos:station:DISL:DISL:1,2018-01-06T11:00:00Z,30.2513,-88.0778,1.9,18.2,11111222 
DISL,ioos:station:DISL:DISL:1,2018-01-06T11:30:00Z,30.2513,-88.0778,1.9,18.8,11111222 
DISL,ioos:station:DISL:DISL:1,2018-01-06T12:00:00Z,30.2513,-88.0778,1.8,19.1,11111222 
DISL,ioos:station:DISL:DISL:1,2018-01-06T12:30:00Z,30.2513,-88.0778,1.8,19.4,11111222 
DISL,ioos:station:DISL:DISL:1,2018-01-06T13:00:00Z,30.2513,-88.0778,1.8,19.5,11111222 
DISL,ioos:station:DISL:DISL:1,2018-01-06T13:30:00Z,30.2513,-88.0778,1.8,19.9,11111222 
DISL,ioos:station:DISL:DISL:1,2018-01-06T14:00:00Z,30.2513,-88.0778,1.8,21.0,11111222 
DISL,ioos:station:DISL:DISL:1,2018-01-06T14:30:00Z,30.2513,-88.0778,1.7,21.1,11111222 
DISL,ioos:station:DISL:DISL:1,2018-01-06T15:00:00Z,30.2513,-88.0778,1.7,21.3,11111222 
DISL,ioos:station:DISL:DISL:1,2018-01-06T15:30:00Z,30.2513,-88.0778,1.7,21.2,11111222 
DISL,ioos:station:DISL:DISL:1,2018-01-06T16:00:00Z,30.2513,-88.0778,1.7,20.9,11111222 